This is the latest recevied weather packets stored in our database for station/object W2GLD-13. If no packets are shown the sender has not sent any weather packets the latest 10 day(s).
| Time | Temp. | Humidity | Pressure | Rain* | Wind** | Luminosity | Snow |
|---|---|---|---|---|---|---|---|
| 1777581905 | 11.11° C | 48% | 1012.9 hPa | 0 mm | - | - | - |
| 1777581005 | 11.11° C | 48% | 1012.9 hPa | 0 mm | - | - | - |
| 1777580106 | 11.11° C | 48% | 1012.9 hPa | 0 mm | - | - | - |
| 1777579206 | 10° C | 50% | 1013.3 hPa | 0 mm | - | - | - |
| 1777578306 | 10° C | 50% | 1013.3 hPa | 0 mm | - | - | - |
| 1777577406 | 10° C | 50% | 1013.3 hPa | 0 mm | - | - | - |
| 1777576505 | 10° C | 50% | 1013.3 hPa | 0 mm | - | - | - |
| 1777575605 | 9.44° C | 54% | 1013.4 hPa | 0 mm | - | - | - |
| 1777574705 | 9.44° C | 54% | 1013.4 hPa | 0 mm | - | - | - |
| 1777573805 | 9.44° C | 54% | 1013.4 hPa | 0 mm | - | - | - |
| 1777572906 | 9.44° C | 54% | 1013.4 hPa | 0 mm | - | - | - |
| 1777572006 | 8.89° C | 59% | 1013.7 hPa | 0 mm | - | - | - |
| 1777571106 | 8.89° C | 59% | 1013.7 hPa | 0 mm | - | - | - |
| 1777570206 | 8.89° C | 59% | 1013.7 hPa | 0 mm | - | - | - |
| 1777569306 | 8.89° C | 59% | 1013.7 hPa | 0 mm | - | - | - |
| 1777568405 | 8.33° C | 61% | 1013.9 hPa | 0 mm | - | - | - |
| 1777567505 | 8.33° C | 61% | 1013.9 hPa | 0 mm | - | - | - |
| 1777566605 | 8.33° C | 61% | 1013.9 hPa | 0 mm | - | - | - |
| 1777565705 | 8.33° C | 61% | 1013.9 hPa | 0 mm | - | - | - |
| 1777564806 | 7.78° C | 71% | 1013.6 hPa | 0 mm | - | - | - |
| 1777563906 | 7.78° C | 71% | 1013.6 hPa | 0 mm | - | - | - |
| 1777563006 | 7.78° C | 71% | 1013.6 hPa | 0 mm | - | - | - |
| 1777562106 | 7.78° C | 71% | 1013.6 hPa | 0 mm | - | - | - |
| 1777561206 | 6.11° C | 75% | 1013.4 hPa | 0 mm | - | - | - |
| 1777560305 | 6.11° C | 75% | 1013.4 hPa | 0 mm | - | - | - |
* Rain latest hour (hover to see other rain measurements)
** Current wind speed in m/s (hover to see current wind gust speed)